Theta_e
331 335 338 340 341 343 345 345 344 345 346 347 346 346 347 347 348 348 347 348 347 345 346 345 344 343 342 343 343 344 347 346 348 349 350 353 357 360 362 361 361 363 365 360 358 362 357 357 358 361 362 361 358 356 353 353 355 355 356 357 358 353 353 354 355 348 342 346 342 340 342 346 350 349 345 344 345 347 348 348 350 351 351 351 354
330 333 337 338 340 342 344 343 345 342 344 345 345 346 347 348 347 348 347 346 346 346 346 346 344 343 341 342 343 344 345 348 346 348 349 354 358 359 362 362 361 362 366 359 361 359 356 357 359 359 360 361 360 360 360 365 363 359 359 357 356 355 353 355 356 344 341 335 335 337 340 341 350 347 343 342 343 343 344 346 347 346 347 348 350
327 332 335 337 339 341 342 343 343 344 344 345 345 347 347 347 347 348 346 346 346 347 346 345 346 348 345 344 345 343 346 349 347 350 353 354 357 359 362 360 360 361 365 365 361 359 357 357 358 358 358 360 363 360 357 357 358 359 358 357 355 353 356 359 358 347 343 341 340 340 333 331 343 343 343 345 346 343 340 340 342 342 343 347 349
325 329 332 335 338 340 341 341 342 343 344 344 345 346 347 348 347 347 347 347 346 348 350 346 348 348 348 346 346 347 346 352 351 353 354 356 356 359 360 360 360 361 363 365 363 360 358 357 357 357 357 358 360 358 357 356 357 357 357 362 356 351 351 354 360 351 347 342 339 338 331 330 331 335 337 345 347 348 343 339 338 340 341 344 348
325 329 332 334 337 338 339 341 342 342 343 344 344 345 347 346 347 347 347 347 347 352 350 347 351 347 348 349 351 351 352 350 348 349 352 355 357 357 358 360 360 361 363 364 366 361 360 359 358 358 359 357 361 358 355 354 357 357 357 359 358 352 350 352 354 356 351 347 340 334 333 332 330 334 334 342 342 344 344 346 347 344 340 342 345
327 329 332 334 336 338 339 340 341 342 342 344 345 346 347 347 347 348 348 348 348 349 349 348 351 345 344 344 343 343 343 345 344 344 347 351 355 357 359 360 361 361 362 363 364 363 360 360 360 360 360 361 363 360 357 357 356 357 358 359 359 355 353 349 349 356 355 355 345 345 342 340 338 336 335 337 343 349 347 346 344 343 342 342 346
327 331 333 334 335 337 337 338 340 341 343 345 345 346 347 347 347 348 348 348 349 349 349 351 348 345 345 344 344 343 342 344 348 348 348 351 356 356 358 360 360 360 362 362 363 365 362 360 360 360 361 361 365 363 359 357 357 358 361 359 360 361 353 352 352 351 350 353 357 356 358 348 343 343 340 338 336 345 345 346 343 343 343 340 338
327 330 332 334 335 336 336 338 339 341 343 344 344 345 346 347 347 348 349 350 349 350 348 350 348 345 345 345 346 344 344 345 348 350 352 355 355 356 357 358 360 361 360 360 362 363 364 360 360 361 361 360 362 364 361 359 358 360 364 359 363 361 355 354 353 352 347 347 357 353 352 350 348 347 343 339 339 337 341 343 345 342 341 344 345
327 330 332 333 335 336 337 337 339 341 342 342 343 345 346 347 348 348 348 350 348 350 349 350 350 347 346 345 345 346 346 348 350 355 354 357 354 356 356 357 358 359 360 360 360 362 366 363 361 361 360 358 367 366 364 363 359 359 362 361 359 359 357 353 354 354 349 348 350 351 348 348 346 347 347 347 344 338 338 337 340 344 343 346 344
328 331 333 334 335 336 337 339 339 340 342 344 344 345 346 347 347 347 347 348 348 349 350 349 350 350 346 345 345 345 348 348 349 351 352 354 353 354 355 355 356 357 358 359 360 361 363 365 362 360 361 359 364 364 362 360 359 360 360 359 360 359 357 361 362 356 352 351 350 351 347 347 346 345 345 343 341 339 337 339 340 339 340 346 345
327 330 333 334 336 337 338 337 338 340 341 342 343 344 346 346 347 346 347 348 349 348 349 348 349 349 347 346 346 345 346 347 346 348 350 351 351 352 353 354 354 355 357 360 359 360 361 364 363 361 361 364 366 364 361 359 359 359 360 360 362 359 357 358 361 357 354 358 353 351 347 345 344 343 344 346 342 341 339 339 343 346 340 340 349
327 330 332 334 335 336 337 337 338 339 340 341 342 344 345 346 346 346 346 347 348 347 348 348 348 349 348 348 347 347 347 347 346 346 349 350 351 351 352 353 353 354 356 358 359 359 361 363 366 364 364 363 361 362 361 359 360 360 360 360 360 360 358 363 357 359 358 356 353 350 349 348 346 345 345 346 347 345 340 340 341 343 344 342 346
328 329 331 332 333 335 336 337 337 338 339 341 341 343 345 345 346 345 345 347 347 347 348 348 348 348 348 348 348 349 348 348 348 347 349 350 351 351 351 351 352 352 354 356 358 359 361 360 360 362 362 363 364 362 361 360 360 360 360 360 359 359 360 361 358 356 358 356 354 353 350 349 350 349 348 346 344 343 345 341 342 342 345 346 349
328 330 331 332 334 335 336 337 337 338 340 340 341 344 345 345 346 345 345 346 347 347 347 347 348 349 349 349 349 351 349 349 349 348 349 350 351 351 351 352 352 352 353 355 358 360 361 361 362 361 361 361 363 363 362 361 362 360 360 361 361 360 361 362 360 360 359 358 356 354 353 352 353 351 351 346 346 345 345 341 346 346 344 347 349
328 330 331 332 334 336 337 337 338 338 340 341 341 343 344 344 345 346 345 345 346 346 347 347 348 349 350 350 350 350 350 350 350 350 350 350 351 351 351 353 353 353 354 356 360 360 361 361 360 360 360 360 362 363 363 364 365 364 366 360 361 359 361 361 361 360 360 358 358 356 354 353 353 353 351 351 348 345 345 347 347 345 344 341 345
328 330 331 333 334 336 337 338 338 339 340 341 342 343 344 344 345 345 345 345 346 347 347 347 348 349 349 350 350 351 354 351 351 354 352 351 351 351 351 352 354 354 355 357 358 360 359 359 361 361 360 360 361 363 362 363 363 362 361 363 362 365 362 361 361 361 360 360 358 358 355 354 354 353 351 350 350 349 349 352 350 348 346 341 342
328 330 331 333 334 336 338 339 339 340 340 341 342 343 344 345 344 345 345 346 345 347 347 348 348 348 349 349 350 349 351 350 349 350 351 352 352 352 352 352 354 355 355 358 358 359 359 359 359 359 360 361 362 363 363 363 362 363 362 361 361 360 364 362 360 360 361 360 361 357 358 356 357 358 353 351 352 352 351 354 353 353 349 346 343
329 330 332 333 335 336 338 339 340 340 341 341 343 344 345 345 345 344 345 345 345 346 347 347 347 348 348 349 350 350 350 351 350 350 351 352 352 353 353 353 353 355 356 357 359 358 358 362 359 359 360 361 362 363 363 363 362 362 362 362 361 361 361 361 361 361 361 361 363 362 358 357 357 356 355 352 352 353 352 353 355 354 352 350 346
329 329 331 332 334 336 338 339 340 341 343 343 344 345 345 345 346 345 345 346 346 346 347 348 348 348 348 349 349 350 350 351 351 351 351 352 352 353 353 354 355 357 358 358 358 357 357 357 359 358 359 361 362 362 363 363 362 362 362 361 361 361 360 359 359 361 361 363 363 361 359 357 357 355 356 354 355 354 354 355 357 357 352 352 348
330 330 330 332 334 336 338 339 340 341 342 343 344 346 345 346 347 346 346 347 347 347 348 347 348 348 348 350 350 350 351 351 352 351 350 351 352 353 354 354 356 358 358 358 358 358 358 356 356 357 357 359 360 361 362 362 361 361 361 361 361 361 360 360 360 360 361 363 362 360 360 359 358 357 357 356 359 356 356 357 357 356 355 352 352
331 331 331 332 333 335 338 340 341 342 344 345 345 346 346 346 346 347 346 346 346 347 347 348 349 348 349 348 349 349 350 352 352 352 351 351 352 355 354 355 357 357 359 358 358 359 359 357 356 358 357 358 360 360 361 362 361 360 360 360 360 360 360 360 360 360 360 360 361 359 359 359 358 357 357 357 357 357 359 359 358 356 354 354 353
332 332 332 333 334 336 338 340 341 341 344 344 345 347 347 347 347 347 347 347 347 347 347 348 349 349 348 348 349 349 350 352 352 352 352 352 352 354 355 356 355 356 358 357 358 358 359 358 357 357 358 358 359 360 360 360 360 359 359 358 358 358 358 359 359 358 359 358 360 359 359 359 359 358 358 357 358 356 356 356 355 354 353 352 354
333 333 334 335 336 336 337 338 339 340 342 344 345 346 347 348 348 348 347 347 348 348 349 349 349 349 349 349 349 350 350 351 352 352 352 352 353 353 355 355 355 355 357 357 357 357 358 358 358 358 357 357 359 359 360 360 360 359 359 358 359 359 358 357 356 357 358 359 357 358 358 359 358 358 359 358 359 358 357 356 356 354 353 351 351
336 337 337 338 339 339 338 337 338 339 341 343 344 345 347 348 348 349 348 348 349 350 349 349 349 349 350 350 350 350 350 351 351 352 352 353 354 354 355 355 355 355 355 357 357 357 357 357 357 357 357 357 357 358 359 359 359 359 359 359 359 359 358 358 357 357 357 358 357 357 357 358 359 358 358 358 357 358 357 357 355 355 354 352 352
334 335 336 338 338 338 338 339 338 339 341 343 344 345 346 347 348 349 349 349 349 351 350 350 350 349 350 350 350 350 351 351 351 351 352 353 353 353 355 355 355 354 355 356 357 358 356 356 354 355 356 356 357 358 359 358 359 360 359 359 359 359 358 359 358 358 360 359 358 357 358 358 358 356 356 355 355 355 356 355 354 354 353 353 351
333 335 337 336 337 338 338 338 339 340 340 341 342 344 346 348 349 350 350 350 351 352 351 350 350 350 350 350 350 350 351 351 351 352 352 353 353 353 353 354 355 355 356 355 355 355 356 355 355 356 356 357 357 357 358 358 358 358 359 359 360 360 359 359 359 359 359 359 359 359 359 359 357 355 356 356 357 355 354 353 353 354 352 351 351
333 335 335 336 337 338 339 339 339 340 341 341 343 344 346 347 349 351 352 352 352 352 352 351 351 350 350 350 350 351 351 352 353 353 353 353 353 353 353 353 354 355 354 354 354 354 355 355 355 356 356 356 356 356 356 357 357 357 356 356 356 357 358 359 359 359 359 360 359 359 360 359 358 358 356 356 357 356 354 354 355 354 353 350 349
333 333 334 335 336 338 338 339 339 340 341 342 343 342 345 346 348 349 351 352 352 353 352 352 352 351 350 350 351 351 352 352 351 352 352 352 352 352 352 353 354 353 353 353 353 353 354 355 355 355 355 356 355 355 354 355 356 355 355 354 354 354 354 355 357 359 359 359 360 360 359 360 359 360 358 358 358 358 358 354 354 353 352 350 349
332 332 333 334 334 336 337 338 339 339 339 339 340 341 344 346 348 349 350 351 352 352 352 352 352 352 351 352 351 351 350 350 351 349 349 350 351 351 352 351 352 351 351 352 354 354 354 354 354 354 354 355 354 354 354 354 353 354 353 352 352 352 352 354 354 355 357 358 359 359 359 359 361 364 365 365 362 360 356 355 355 354 352 351 350
332 333 334 334 335 336 337 337 338 339 339 340 341 342 343 345 346 348 349 350 350 351 351 351 351 352 352 350 348 349 348 349 348 348 348 349 349 351 352 353 351 350 350 352 352 352 352 352 353 353 354 354 353 354 355 357 357 354 353 352 352 353 352 352 353 354 354 355 357 358 359 363 365 367 369 370 369 366 364 358 356 356 353 352 350
332 333 334 335 336 337 337 338 338 339 339 340 341 342 344 345 347 348 349 349 349 348 346 344 344 345 346 346 346 346 346 346 346 347 348 348 348 349 351 352 352 352 351 351 352 350 350 352 352 353 352 352 353 353 350 337 338 346 355 352 351 352 352 352 351 353 353 353 354 355 356 357 361 364 367 370 369 368 368 368 365 363 358 352 351
330 333 333 334 335 335 336 338 339 340 341 341 341 342 344 344 346 347 348 349 346 343 341 343 343 343 343 344 345 345 345 345 346 346 347 347 348 349 349 351 351 349 351 351 348 349 350 351 353 352 352 352 351 350 337 339 340 339 348 354 352 351 351 350 350 350 351 352 352 353 353 353 354 355 356 358 360 361 360 364 366 366 365 359 355
331 332 333 333 334 334 335 337 338 339 339 341 343 342 342 344 345 347 348 345 343 342 342 342 343 343 344 344 343 343 344 345 345 346 347 348 348 348 349 349 349 351 351 349 349 349 349 351 351 351 351 353 352 344 337 338 337 337 340 352 354 353 353 351 351 352 351 352 353 352 352 352 352 360 363 365 361 361 365 365 363 365 367 363 347
332 333 333 333 334 334 333 334 335 338 339 341 342 343 343 345 347 347 345 343 343 342 341 342 343 342 342 344 343 344 345 345 345 346 345 347 349 349 350 351 351 350 348 348 349 348 348 349 349 350 351 349 347 334 331 332 332 332 333 339 344 345 346 348 349 350 351 351 353 353 351 350 352 353 355 354 354 356 362 362 358 356 357 365 361
327 328 329 329 330 330 330 330 332 334 335 337 339 340 341 342 343 344 344 342 342 341 341 342 341 341 342 342 343 344 344 344 345 344 344 344 345 346 348 349 349 348 347 347 347 346 345 347 348 348 347 343 336 324 325 327 325 326 328 337 340 342 343 345 348 351 352 352 353 351 351 349 352 351 349 349 350 354 358 359 358 357 356 356 355
324 325 325 327 328 328 329 328 331 330 331 332 333 335 336 338 341 340 339 340 339 339 339 339 338 339 339 340 341 341 341 342 343 342 342 341 342 344 345 348 348 347 347 348 348 347 345 344 347 348 345 341 331 318 319 319 319 321 328 336 341 344 345 346 347 349 352 353 353 351 351 351 351 349 345 337 341 349 353 356 357 354 350 346 345
323 324 324 326 327 327 328 328 327 327 327 328 330 331 331 330 334 335 335 335 336 335 336 336 336 337 337 338 338 339 340 339 340 340 340 340 340 341 343 346 346 345 346 345 344 345 345 346 345 344 342 339 332 319 314 314 316 318 327 339 344 347 346 347 347 348 350 351 352 352 352 351 350 347 339 327 331 350 351 352 354 353 350 346 341
322 324 324 324 325 325 327 326 325 325 326 328 329 328 327 326 330 332 333 333 333 333 334 335 335 335 335 336 337 338 337 337 338 337 337 338 339 341 341 344 344 343 342 343 344 343 343 344 344 339 340 335 329 321 313 313 314 316 330 339 343 345 346 346 347 348 349 350 352 354 354 349 346 344 331 326 332 349 347 347 348 348 346 346 342
320 321 322 323 323 324 324 324 324 323 325 326 327 327 325 324 324 324 325 326 329 333 334 334 335 336 337 337 337 336 336 336 336 336 336 337 338 341 343 343 342 342 342 344 345 342 340 339 339 338 339 330 329 324 314 312 313 315 328 338 341 345 346 347 347 346 346 347 349 353 356 353 347 343 323 325 330 347 345 344 344 345 347 345 343
319 319 319 319 320 319 319 319 319 321 324 324 324 324 325 323 324 324 323 323 324 325 328 332 334 335 335 335 334 335 335 334 334 335 335 336 339 340 340 341 341 342 342 343 346 341 335 332 332 331 330 329 327 326 321 311 310 313 321 336 335 339 338 339 342 345 348 348 345 343 348 341 332 325 318 321 325 331 343 344 343 341 340 340 339
318 318 320 316 315 315 315 316 317 320 322 323 323 322 322 323 323 322 322 323 324 326 327 329 331 333 335 336 335 334 333 333 337 336 338 337 336 337 339 340 340 340 340 339 337 333 331 331 331 331 332 331 330 328 323 311 309 311 315 327 332 333 333 335 337 340 342 343 342 339 335 327 319 316 315 314 316 323 333 337 336 338 340 343 338
319 321 319 313 313 312 312 313 314 316 320 322 322 322 322 322 321 321 323 326 326 326 327 327 328 329 331 333 335 338 339 339 339 337 334 332 334 337 338 336 336 334 333 332 331 330 327 327 327 329 329 328 332 331 326 315 311 309 310 316 330 332 332 334 333 332 335 334 331 334 334 324 314 315 313 310 310 314 320 335 332 324 324 326 335
313 313 316 313 310 310 310 310 311 313 315 319 323 322 320 319 317 320 324 326 324 323 325 326 327 327 330 329 329 331 331 331 330 330 328 327 329 333 335 336 333 331 329 327 327 326 325 324 325 325 325 323 323 327 326 324 314 309 309 312 314 323 322 331 329 327 327 327 328 326 329 327 314 308 307 308 309 310 320 327 321 316 316 323 336
313 314 314 314 309 309 309 309 310 311 311 313 318 320 320 318 315 319 324 325 322 322 323 324 326 323 323 324 324 323 323 324 326 326 325 323 324 327 330 334 333 330 327 325 325 325 324 324 323 321 321 321 320 320 323 323 321 313 310 309 311 314 316 325 328 328 328 328 326 324 325 313 306 303 305 310 312 315 323 315 313 315 319 328 336
311 313 314 311 308 308 308 309 310 311 311 312 313 317 319 316 316 322 324 324 323 324 322 320 320 320 320 319 319 318 318 318 319 321 322 323 324 325 325 327 333 329 326 324 325 326 325 324 321 318 318 318 317 316 316 320 321 321 314 311 312 314 317 316 325 325 326 324 318 310 308 307 308 307 307 310 315 318 311 310 312 315 329 332 334
311 310 312 309 308 308 308 308 309 311 311 315 313 314 315 315 319 321 323 324 325 325 323 321 320 319 317 318 316 316 316 316 316 317 318 319 321 325 326 325 327 330 328 326 327 327 326 323 319 319 318 317 317 315 314 314 318 318 317 315 314 316 323 323 323 321 318 316 313 313 313 312 312 314 321 326 327 328 327 319 317 322 332 333 334
312 315 313 309 308 308 309 309 309 310 312 313 313 315 315 317 320 320 322 325 326 325 326 324 323 323 322 321 319 317 315 315 314 313 314 316 317 318 320 323 322 324 328 330 330 329 326 323 320 318 318 317 315 315 313 313 312 312 312 313 313 315 317 317 317 316 314 315 321 325 324 318 317 321 324 326 326 327 332 327 329 332 333 334 336
310 313 311 307 307 308 310 311 311 310 310 312 312 313 313 315 317 319 321 325 326 324 321 321 322 323 322 322 324 325 317 313 313 312 311 312 314 315 314 314 314 316 321 321 322 323 321 320 318 317 316 316 314 315 313 309 310 309 309 309 311 311 309 309 312 310 309 315 322 325 324 329 330 331 329 329 329 331 333 333 331 333 334 336 338
309 312 313 306 311 312 311 313 311 309 309 310 311 312 313 314 316 317 320 323 324 324 321 319 320 321 322 323 317 316 315 314 313 312 310 309 309 312 314 314 313 311 312 316 319 319 319 316 317 315 315 313 313 313 313 305 306 302 304 304 308 307 304 306 309 305 311 320 324 324 325 325 326 329 329 329 331 332 332 333 332 333 333 335 331
311 312 311 314 315 309 311 313 311 310 311 312 311 311 313 314 316 316 318 322 324 321 319 319 320 320 321 320 318 316 317 316 313 312 311 311 308 302 305 313 312 310 303 298 302 314 314 314 311 312 315 314 312 311 303 296 294 294 295 295 296 294 294 300 304 303 313 322 322 322 322 323 324 324 325 326 326 327 327 326 326 325 325 324 324
313 311 311 310 311 316 315 315 312 315 314 313 314 312 312 314 314 314 316 318 319 321 319 319 323 323 324 323 319 315 315 314 314 314 315 314 312 309 296 298 306 306 299 294 293 295 301 307 317 314 311 305 304 299 294 293 293 293 292 292 292 292 293 293 296 309 320 319 319 319 319 319 320 322 322 321 322 322 322 322 321 321 321 321 321
Wind_Speed
8 9 10 11 10 9 8 8 8 8 7 8 8 7 7 7 7 7 6 6 6 5 5 5 4 3 2 3 3 3 3 2 2 2 2 3 2 2 3 3 3 2 1 2 3 3 3 2 2 0 0 1 1 3 3 3 2 2 2 2 3 3 2 2 2 1 1 1 2 4 4 3 2 1 3 3 4 4 3 4 3 3 4 4 4
5 5 7 7 7 9 8 8 9 10 9 9 9 8 7 7 7 6 6 6 6 6 5 5 3 4 4 4 3 3 3 3 4 3 4 2 3 3 3 3 3 2 1 2 2 3 3 3 2 2 1 2 2 2 3 3 3 2 1 2 1 1 2 2 3 1 3 1 2 4 5 5 2 2 2 3 3 3 3 4 3 4 5 4 3
8 9 10 9 10 10 9 9 9 10 10 11 9 8 7 7 6 5 6 7 6 6 5 4 3 3 3 3 4 2 2 3 3 1 1 2 2 3 3 2 3 2 2 3 3 3 3 3 3 2 1 1 2 3 2 4 2 3 1 1 3 1 2 2 2 2 1 1 2 1 2 5 4 4 2 3 2 3 2 3 3 4 6 4 3
10 10 11 10 11 10 8 9 9 8 8 8 9 9 7 7 6 6 6 6 6 6 6 5 5 4 3 4 4 3 2 2 2 1 1 1 3 3 3 3 3 3 3 3 2 2 3 4 2 2 2 1 1 2 4 4 3 3 2 1 1 3 2 3 4 2 2 3 2 1 1 0 3 3 3 5 2 3 2 3 3 4 5 4 3
10 10 10 10 10 11 12 10 9 10 10 10 10 9 7 9 8 7 7 6 6 6 6 5 4 3 2 2 2 1 2 2 2 2 2 3 2 3 4 3 3 3 2 2 2 3 2 2 2 2 2 1 1 2 3 3 3 3 2 1 1 1 3 2 2 3 2 1 5 2 1 2 1 3 3 3 4 2 2 2 2 3 4 3 3
11 12 13 13 14 11 9 9 10 9 10 11 11 11 10 8 8 7 6 6 6 6 6 6 6 6 4 4 4 4 4 3 5 6 5 4 5 3 2 3 3 3 2 2 2 2 3 3 2 2 2 2 2 2 2 3 4 4 2 2 0 1 0 2 2 2 2 3 2 1 2 1 1 2 1 2 5 1 3 2 1 3 3 3 2
7 9 10 11 11 11 11 11 11 11 11 10 9 9 10 10 9 8 7 6 6 6 6 6 6 6 7 7 6 6 6 5 4 4 5 5 4 4 4 3 3 3 3 3 3 2 3 3 3 2 2 2 2 2 3 3 3 3 2 1 1 1 0 2 1 2 2 2 2 1 1 2 2 2 2 1 3 3 3 3 3 4 4 3 2
10 11 12 13 13 14 15 14 12 13 11 10 9 8 9 10 9 8 7 7 6 6 7 7 7 6 7 6 6 6 7 7 6 5 5 3 4 5 4 4 4 4 4 4 3 3 3 3 3 3 3 2 2 3 3 3 2 1 0 1 1 1 1 2 2 1 1 1 1 2 3 3 3 3 2 0 1 1 4 4 1 3 4 2 2
12 11 12 12 13 13 12 13 13 10 10 11 11 10 9 9 9 8 8 7 6 7 7 7 6 7 7 6 6 5 6 6 4 4 4 4 5 4 4 4 4 4 4 4 4 4 3 4 4 4 3 3 3 2 2 2 3 2 1 1 1 1 1 1 1 2 1 1 1 2 3 3 3 2 1 2 2 1 2 1 5 4 3 2 4
10 12 13 13 14 13 14 12 11 11 11 10 10 8 8 8 9 9 9 7 7 7 7 7 7 6 6 6 7 6 4 3 3 5 5 5 6 5 5 4 4 4 4 4 4 4 4 4 4 4 4 3 2 2 2 2 3 2 2 2 1 1 1 1 2 1 1 1 1 0 1 1 2 1 1 2 2 1 1 2 2 2 4 5 3
10 10 11 12 13 13 11 12 12 10 8 9 9 9 9 9 10 10 10 8 7 8 8 8 6 6 7 7 8 7 6 6 5 5 4 4 5 5 5 5 4 5 4 4 4 4 4 4 4 4 3 2 2 2 3 3 2 2 2 2 2 2 0 1 1 0 1 0 0 0 1 1 2 2 3 2 1 1 1 2 3 2 3 4 4
11 10 10 10 7 7 9 9 10 10 9 10 9 9 9 10 10 11 9 9 8 8 8 8 7 6 6 7 8 7 7 6 7 7 7 7 7 6 5 4 4 4 4 4 4 4 4 4 4 3 3 2 3 2 2 2 2 1 2 2 2 2 1 1 1 1 1 0 1 1 1 1 1 2 2 2 1 1 1 2 2 2 1 4 5
11 11 10 9 10 10 11 10 8 9 10 12 12 11 10 10 11 12 11 9 9 8 9 8 8 7 7 6 6 6 6 7 7 7 7 7 6 6 5 6 5 4 4 5 5 5 4 4 4 4 4 3 3 3 3 3 2 2 2 3 2 3 3 2 2 2 2 2 2 1 2 2 2 1 1 2 1 2 1 1 1 1 2 3 2
12 11 11 11 11 11 12 11 11 11 11 12 11 11 10 10 11 12 12 11 9 8 9 8 8 8 7 6 6 6 6 7 6 6 6 6 6 7 6 6 6 6 6 6 6 5 4 5 5 5 4 4 3 4 3 3 3 2 2 3 3 3 2 2 2 2 2 3 1 2 2 2 2 2 3 2 3 3 1 1 2 1 1 2 2
10 11 12 12 12 12 11 11 11 11 12 11 10 10 10 10 11 12 11 10 10 10 9 9 8 8 7 6 6 6 6 6 6 6 6 6 6 6 6 5 6 6 6 6 5 5 5 5 5 5 5 5 4 4 3 3 3 2 2 2 2 2 2 1 2 1 2 3 2 3 3 2 2 2 2 3 2 3 2 3 2 2 2 1 2
10 11 12 12 12 12 11 11 11 11 11 10 11 10 10 10 11 12 13 12 11 10 10 10 9 7 7 7 7 6 5 5 5 5 5 6 6 6 6 6 6 6 5 4 5 5 5 5 4 5 5 4 4 4 4 3 4 3 3 2 3 2 2 3 2 2 3 3 3 2 2 3 2 1 2 2 2 2 2 2 2 3 1 3 3
11 11 11 12 11 11 11 12 11 10 10 11 11 12 13 11 11 11 11 10 11 11 11 10 9 8 9 8 7 7 7 7 7 7 7 6 6 6 5 6 5 5 5 4 5 5 5 5 5 5 5 5 4 4 4 4 4 4 3 4 4 2 2 3 2 3 3 2 2 2 2 3 3 1 2 2 2 2 2 2 2 3 3 1 2
12 12 12 13 13 13 12 11 12 13 13 13 12 12 11 11 12 13 11 12 12 11 11 10 10 10 9 9 8 8 8 7 6 7 6 5 5 5 4 4 6 5 5 4 5 5 5 5 5 5 5 5 5 4 4 5 4 4 4 4 3 3 3 2 2 2 3 2 2 2 2 3 2 2 2 2 2 3 2 2 2 1 2 2 2
9 10 10 10 11 12 13 13 12 12 12 13 13 12 10 10 10 12 13 14 13 10 9 8 9 8 8 9 9 8 7 6 6 6 5 6 6 5 5 6 4 5 5 5 5 5 5 5 5 5 4 5 5 5 5 5 5 4 4 4 3 3 3 3 3 3 3 2 2 3 2 3 2 2 2 2 3 3 3 2 2 2 2 2 2
9 10 10 11 12 13 13 13 12 12 11 10 11 9 11 11 11 11 11 9 9 9 9 9 9 8 8 7 7 7 7 7 7 6 6 6 6 6 6 5 6 5 5 5 5 5 5 5 4 5 5 4 5 5 5 5 4 4 4 3 3 3 3 4 3 2 2 2 3 3 3 3 2 2 3 3 3 3 3 3 3 3 2 3 3
7 8 9 10 10 10 9 9 8 7 7 8 9 10 11 10 11 11 11 10 10 10 9 9 8 8 8 9 8 8 8 6 6 6 6 6 6 6 6 6 4 5 5 5 5 6 5 5 5 5 5 5 6 5 5 4 4 5 4 4 4 4 4 4 3 4 3 3 3 4 4 4 2 3 3 2 2 3 3 3 3 3 3 3 4
5 6 8 8 7 8 8 7 7 7 7 9 9 8 8 9 10 10 9 9 10 10 9 9 8 8 10 9 8 7 7 6 7 6 6 6 6 6 6 5 6 6 5 5 6 5 5 6 5 6 6 5 5 6 5 4 5 5 5 3 4 4 5 5 3 4 4 3 3 4 5 4 3 4 3 3 3 3 3 3 3 3 3 4 4
4 4 5 6 8 9 10 11 10 11 10 11 8 9 9 8 8 8 10 10 10 10 10 9 9 9 9 9 7 7 7 8 8 7 7 6 6 6 5 6 6 5 5 5 6 5 6 6 6 6 6 5 6 5 5 5 5 5 5 4 4 5 5 5 4 5 5 3 3 4 5 4 2 4 4 4 3 3 2 3 4 3 4 4 4
8 7 7 7 5 2 6 7 8 7 8 10 10 10 9 8 7 6 9 11 10 9 9 9 9 9 10 9 8 8 8 8 8 6 8 7 6 5 5 6 6 5 5 5 6 6 6 6 6 6 6 6 6 5 4 5 5 5 5 6 5 5 4 4 5 5 5 4 5 4 5 5 4 4 4 3 3 2 3 3 4 3 4 5 4
8 8 8 8 7 5 2 1 4 5 5 7 8 9 9 8 8 9 8 8 8 8 9 9 9 10 9 9 9 8 8 8 8 6 7 7 6 5 5 6 5 5 5 5 5 5 6 6 6 6 7 6 6 6 6 6 6 6 6 6 5 5 5 5 5 5 5 5 5 5 6 5 4 4 4 4 3 4 4 3 4 4 4 4 3
7 5 6 6 6 5 4 3 2 3 4 5 5 5 5 5 7 8 8 7 6 5 7 8 8 8 8 9 9 8 9 9 8 7 8 7 6 6 6 6 6 6 6 5 6 5 6 7 7 7 7 7 7 7 7 7 6 5 5 5 5 5 5 5 5 6 6 5 5 6 6 5 5 5 6 5 4 5 3 4 5 5 5 3 4
8 7 5 5 4 4 5 4 3 4 4 5 4 2 2 4 6 6 7 9 9 8 8 9 9 10 10 10 9 9 8 8 8 8 6 6 6 6 7 7 6 7 6 6 6 7 6 7 7 7 7 7 7 7 7 7 6 6 6 5 5 5 4 4 5 6 6 6 6 6 6 6 6 6 6 6 5 4 4 5 6 6 5 4 4
2 5 7 7 6 4 3 4 4 4 3 1 0 5 6 6 7 6 7 8 8 10 10 10 10 11 11 10 10 9 8 8 6 6 6 6 6 5 5 5 4 6 6 6 7 7 7 6 7 7 8 7 7 6 7 6 6 6 6 6 6 6 6 5 5 5 5 6 6 6 7 6 7 6 6 6 5 6 5 5 5 5 4 4 5
3 2 3 3 6 7 5 4 5 7 8 10 10 10 9 7 7 7 7 9 9 10 11 11 10 11 11 10 8 8 8 8 7 7 7 7 7 6 6 5 4 4 4 6 6 7 7 6 6 7 7 6 6 7 6 7 7 7 7 7 6 6 6 6 5 5 5 5 6 6 7 7 7 10 12 10 8 7 5 6 6 4 5 5 5
2 3 4 4 2 1 3 6 7 7 7 7 9 10 11 11 9 8 8 8 8 10 10 10 10 10 7 7 8 7 7 7 7 8 7 7 6 6 5 5 5 5 5 5 5 6 6 7 7 7 6 6 6 6 8 13 11 8 7 6 5 5 6 5 6 5 5 5 6 6 6 11 13 14 14 13 12 12 11 8 8 6 5 5 5
7 7 5 5 6 5 3 4 6 6 6 5 6 7 8 9 9 9 8 7 6 5 4 6 5 6 2 3 5 6 6 7 7 6 5 6 6 5 5 5 5 4 4 5 5 6 7 7 8 8 8 6 5 1 7 8 9 12 9 5 5 5 5 5 6 6 6 6 5 5 5 7 10 11 10 11 10 9 8 10 13 12 8 7 5
7 6 6 6 6 6 6 6 6 5 5 5 5 6 7 10 9 10 8 7 6 7 7 7 7 5 3 6 4 0 5 6 6 7 7 6 6 6 5 4 4 5 5 5 6 7 6 6 5 5 5 4 2 6 12 13 12 13 13 9 6 5 5 5 6 6 6 5 5 5 4 4 5 6 7 7 8 9 12 13 12 13 11 12 10
7 7 6 6 6 5 6 6 5 5 5 4 3 5 8 8 9 9 8 11 12 10 9 6 5 8 10 7 4 5 6 4 4 4 4 4 3 2 2 2 4 4 3 5 6 6 6 6 6 7 7 5 4 4 4 4 7 12 13 11 6 5 5 5 5 6 6 5 4 4 4 4 4 8 7 5 5 6 8 7 4 6 8 10 11
8 8 9 8 7 7 7 8 8 8 7 6 4 4 5 5 5 4 6 8 10 11 12 9 4 1 2 5 6 6 4 1 1 2 2 2 4 2 3 2 2 1 1 1 2 1 2 2 3 3 2 2 4 3 3 2 2 3 3 3 2 3 4 5 6 6 6 7 6 6 5 5 4 3 3 4 4 5 5 3 2 2 3 2 4
11 11 10 9 8 8 8 9 8 7 7 6 6 6 5 3 3 3 3 5 6 8 8 9 8 6 3 3 3 2 3 5 5 4 4 4 2 2 2 1 1 2 2 3 3 7 6 7 6 3 2 3 2 4 2 1 1 2 4 5 3 5 7 8 8 8 8 8 7 5 5 5 4 4 3 3 4 5 4 4 4 3 2 3 3
8 8 8 7 7 8 8 8 8 9 9 9 7 8 9 8 2 4 5 5 6 5 4 5 6 6 5 4 6 6 2 3 5 5 4 3 2 2 1 2 3 3 3 3 4 5 6 5 5 3 3 1 4 8 6 5 3 2 4 4 4 6 8 8 8 7 7 6 5 5 5 5 4 3 2 1 1 2 5 6 4 3 3 3 3
8 8 8 7 7 8 8 7 9 10 10 10 8 8 7 10 9 5 10 9 9 8 7 7 6 6 6 6 7 6 5 5 4 3 0 2 2 2 2 2 3 2 1 3 3 2 3 3 1 1 3 2 3 8 8 7 6 5 3 3 3 5 7 7 7 8 7 6 6 6 7 6 6 5 5 5 5 3 1 4 3 2 3 4 3
7 7 7 7 7 7 8 8 10 11 10 8 9 9 12 10 6 10 11 9 8 8 7 8 8 6 6 5 5 5 6 6 5 4 1 3 5 4 4 4 3 2 3 2 0 0 2 1 1 2 2 4 4 6 9 9 8 9 6 3 3 4 6 5 5 6 5 4 5 10 9 8 8 7 10 9 8 6 5 4 3 3 2 2 2
7 7 7 8 8 8 8 10 11 12 10 9 9 10 11 10 10 10 10 10 8 6 6 6 7 7 7 6 5 6 6 6 4 3 3 3 3 4 3 2 0 2 1 1 3 3 2 4 5 6 8 7 4 6 10 10 10 9 6 3 3 3 5 6 6 7 6 6 5 6 11 10 9 7 10 10 10 7 7 7 6 5 4 3 3
7 7 7 7 7 10 11 10 10 9 8 8 8 10 11 10 9 10 11 10 8 7 6 5 6 8 5 4 6 8 7 6 4 3 2 1 1 0 2 3 3 2 1 2 1 3 4 5 5 6 6 6 6 6 8 10 9 9 7 3 2 2 3 5 5 6 6 6 3 3 5 8 10 8 9 8 7 7 7 6 7 6 5 8 5
7 7 7 7 8 8 8 8 7 8 8 7 7 9 9 8 8 10 9 7 6 5 5 6 5 3 3 5 6 6 7 5 3 3 3 3 2 2 3 3 3 2 3 3 4 5 5 5 6 6 7 6 6 5 7 11 10 10 10 6 4 4 3 4 4 5 5 5 4 2 3 5 3 2 4 5 7 7 5 4 5 6 5 4 7
6 7 6 6 7 9 10 10 9 9 8 7 8 9 8 8 9 9 7 4 4 4 3 4 6 7 7 8 8 7 6 4 3 3 4 5 4 5 6 6 6 5 5 5 5 5 4 6 6 6 6 6 7 10 5 10 11 10 11 10 4 4 4 3 3 3 4 4 5 5 4 6 8 8 8 5 2 2 2 2 3 1 2 6 3
7 8 7 6 8 8 8 8 7 7 7 7 9 9 9 9 11 9 6 5 5 5 6 7 7 8 8 8 8 8 6 6 6 6 6 6 6 6 6 5 5 6 6 6 6 6 6 7 6 5 5 6 6 6 10 7 9 11 12 12 10 7 9 5 4 4 4 3 2 2 2 6 5 8 10 7 4 5 3 1 0 1 3 6 7
6 6 5 6 7 6 7 8 8 8 8 8 8 9 8 10 10 8 6 6 6 7 6 8 7 7 7 7 6 7 6 6 6 6 7 7 7 6 5 4 4 5 5 6 5 5 5 5 5 5 4 5 5 5 8 12 9 11 11 11 11 11 10 6 4 3 3 3 3 3 3 6 9 7 6 11 9 6 4 2 8 10 12 11 6
6 5 4 6 6 6 6 8 7 8 8 8 8 9 10 10 8 6 8 7 7 7 7 7 7 6 6 5 6 7 7 6 6 6 6 5 5 4 4 4 3 4 5 5 4 4 4 4 4 3 3 4 4 4 5 7 10 9 9 10 10 10 8 8 5 4 4 4 7 11 9 9 8 8 8 6 5 3 6 8 2 1 4 1 1
5 5 5 4 5 6 7 7 7 7 7 6 7 8 9 5 5 5 5 6 7 8 8 7 7 7 7 6 7 7 7 7 7 6 6 5 3 3 3 3 3 4 4 4 4 4 4 3 3 3 3 3 4 4 5 5 7 8 7 9 10 9 11 9 6 3 8 8 7 10 11 9 9 8 6 4 3 1 3 3 2 2 0 1 1
4 2 2 3 4 5 5 5 6 7 6 6 7 7 5 5 6 6 5 5 7 7 6 5 6 6 5 5 7 5 5 6 6 5 6 7 6 5 4 4 4 4 4 4 4 4 4 3 3 3 2 3 3 3 3 3 4 5 5 6 7 6 10 9 6 6 7 6 8 7 7 8 8 8 7 3 3 6 3 3 4 3 1 2 0
1 2 3 3 4 3 3 4 5 5 6 6 6 6 6 6 6 5 5 5 6 5 6 5 5 4 4 4 5 7 7 5 5 6 5 5 6 5 5 6 6 5 4 4 4 4 4 3 3 3 2 3 3 3 3 4 4 4 4 4 3 4 4 4 5 5 5 6 6 7 6 4 3 0 2 2 1 0 1 2 2 3 2 0 1
3 1 1 4 2 4 3 3 2 3 4 5 5 6 6 7 6 5 5 6 6 5 5 5 4 5 4 4 4 4 4 4 5 5 5 5 3 3 5 5 5 3 4 4 4 4 4 3 3 3 4 4 4 5 4 5 4 5 3 3 3 3 3 3 4 8 6 4 4 6 7 7 6 5 4 3 2 2 3 3 3 3 4 4 4
2 2 2 2 3 4 4 3 2 3 4 4 4 5 5 6 6 5 5 5 4 4 5 5 4 4 4 4 3 3 3 4 4 4 4 5 8 8 5 4 3 7 8 7 4 4 3 2 4 3 2 3 2 3 8 10 8 7 5 6 7 7 7 6 7 9 4 3 6 6 7 7 7 7 6 6 5 5 6 6 6 7 6 6 5
1 1 1 2 2 2 2 3 1 2 3 4 4 5 4 5 5 5 5 5 4 4 4 4 4 4 4 3 3 3 3 4 3 3 4 5 4 5 7 8 8 7 7 8 9 8 9 7 5 3 2 3 2 1 4 5 6 6 6 6 6 7 6 8 9 2 4 6 5 7 7 7 7 7 8 7 6 6 6 7 7 7 6 6 5
Wind_Direction
191 181 175 173 166 165 161 161 163 163 164 168 166 167 165 169 162 172 164 153 152 151 155 154 144 128 94 168 191 188 195 178 241 250 231 220 232 226 196 189 185 199 174 152 179 199 180 176 169 36 104 151 242 267 291 302 289 250 303 319 313 338 317 352 332 39 11 301 332 23 353 357 322 169 217 232 239 240 232 248 247 263 258 252 249
144 162 173 167 163 160 158 160 162 167 173 169 176 175 170 167 175 171 156 162 164 165 166 165 167 174 157 181 163 162 184 191 225 239 225 214 204 226 218 175 163 175 168 161 182 184 168 175 176 204 172 229 245 265 286 287 313 326 306 315 211 295 286 319 321 257 26 98 38 334 348 333 337 347 319 268 259 247 243 250 249 257 262 257 260
170 177 172 176 170 165 165 169 174 176 171 171 173 169 169 172 178 169 170 168 169 162 155 172 172 166 156 159 166 173 211 196 187 249 218 235 226 222 220 187 165 186 184 180 178 191 181 172 205 189 185 246 279 305 330 314 319 322 282 270 316 266 263 264 10 51 128 129 148 67 4 352 328 358 332 286 288 276 266 263 265 261 263 265 257
174 173 177 175 174 172 168 172 172 167 169 173 172 172 174 177 178 170 177 172 164 169 171 172 169 180 174 154 177 158 187 182 160 110 124 184 248 227 250 208 194 205 185 164 148 177 184 193 174 178 211 168 232 285 307 303 318 328 328 251 214 327 343 329 39 34 128 144 346 23 265 100 355 336 326 296 313 299 320 281 269 263 271 274 264
173 175 173 169 172 181 181 176 167 171 176 179 177 175 178 181 182 176 175 176 171 175 172 164 155 147 138 65 89 108 34 80 124 244 194 214 221 236 234 210 217 221 199 162 147 173 197 184 178 214 214 217 194 256 280 286 305 281 276 256 229 215 336 329 336 39 20 200 135 119 328 10 228 263 346 292 350 23 305 315 312 297 276 262 262
175 176 175 175 180 182 178 170 175 177 181 185 184 177 172 175 174 174 171 173 174 180 169 163 167 161 147 149 157 181 196 155 188 209 207 194 211 204 211 204 221 222 209 206 176 154 196 197 190 197 231 245 229 246 273 314 309 307 280 232 174 222 198 37 349 2 26 36 96 169 176 156 242 271 53 310 320 254 291 287 284 345 318 285 233
190 178 175 174 177 174 179 182 183 184 188 178 181 183 175 168 171 173 175 180 177 178 170 167 165 167 174 182 183 188 194 225 214 213 198 207 194 192 210 207 216 220 221 200 205 194 184 202 199 206 233 242 244 220 270 273 285 288 302 235 292 82 131 72 17 291 338 31 32 47 62 36 121 114 281 120 342 319 328 348 332 351 338 344 321
180 182 182 182 177 178 182 187 185 191 178 171 178 179 178 171 167 174 176 179 180 171 173 175 170 176 177 183 187 189 192 209 202 208 200 180 185 201 193 212 211 219 225 214 210 210 194 208 204 213 226 244 232 232 253 271 278 257 176 157 57 16 83 96 334 317 151 280 25 44 72 77 69 71 110 12 158 308 320 325 259 335 345 16 3
181 181 184 182 183 186 183 184 191 180 173 177 180 180 178 174 169 169 177 180 179 171 172 180 172 175 179 179 186 202 199 205 198 191 179 179 190 197 201 212 214 219 220 222 220 216 216 209 204 210 213 231 224 233 248 246 249 267 267 156 126 71 36 104 346 318 326 6 329 29 39 41 28 45 98 115 132 128 288 288 307 328 343 335 352
188 186 184 186 186 186 186 181 174 184 183 180 177 171 173 171 173 171 180 181 175 175 174 178 173 167 175 182 185 195 202 193 174 189 186 177 194 201 201 207 213 213 223 225 228 221 220 211 198 207 215 223 241 250 259 247 231 227 221 215 134 142 127 187 288 265 234 285 346 339 57 15 9 347 19 78 65 17 158 276 296 331 338 302 319
187 188 191 191 189 184 170 175 183 176 175 174 174 176 174 175 177 180 186 181 174 176 173 181 177 170 180 182 187 190 188 174 176 204 181 177 199 203 197 210 203 212 210 224 221 218 218 214 206 211 207 217 249 248 252 260 252 229 197 192 172 180 183 67 87 118 206 262 44 122 181 231 237 204 241 250 213 181 49 284 290 209 244 316 290
184 183 189 190 180 173 172 176 173 174 168 174 178 174 177 180 178 183 188 187 181 177 177 181 179 183 185 183 190 193 182 180 186 192 190 194 197 200 205 199 211 211 214 221 225 213 210 213 215 203 212 216 248 245 268 261 272 250 208 201 215 221 187 152 125 192 230 213 266 181 211 179 166 259 259 177 158 237 168 264 267 310 268 224 283
181 186 183 178 178 176 179 177 167 168 177 178 178 178 179 180 181 182 191 191 190 180 184 183 181 187 186 189 199 191 191 190 192 194 193 197 196 199 189 206 207 209 219 214 220 207 198 208 209 212 223 218 227 238 255 255 250 222 227 230 206 217 214 190 220 233 218 238 265 207 199 190 216 192 174 162 42 110 127 318 262 199 280 302 301
184 183 181 179 180 184 183 176 177 180 179 179 178 178 178 181 183 186 192 189 189 187 188 186 193 189 185 189 196 190 196 196 197 197 198 204 194 199 195 199 200 207 204 212 212 199 198 204 201 210 214 210 208 222 236 238 203 195 200 227 232 227 194 190 229 268 269 267 252 252 235 223 229 180 181 162 171 154 153 206 274 249 236 286 288
181 181 182 183 184 183 182 181 183 182 181 179 178 179 177 181 183 190 189 190 189 192 188 193 195 191 187 190 191 194 198 197 201 198 194 198 202 199 208 204 203 212 208 213 197 201 204 193 201 206 214 213 204 211 214 208 196 187 182 209 234 206 209 205 242 253 278 283 253 245 276 265 250 207 189 210 206 199 174 175 169 323 331 293 322
184 183 184 186 184 183 183 185 185 184 181 180 180 176 181 186 187 190 189 187 190 191 193 193 196 189 185 187 193 192 201 201 204 203 199 200 198 200 205 206 213 212 217 203 203 195 199 205 200 212 213 213 207 209 209 202 198 195 198 190 225 187 198 216 241 229 251 266 271 276 286 286 298 273 234 238 228 231 211 163 181 129 129 322 330
183 184 184 184 183 186 187 186 185 184 181 184 184 183 185 183 185 191 193 189 191 194 193 193 192 188 191 189 186 189 193 192 196 198 196 197 199 205 202 209 208 210 214 206 203 199 204 201 204 213 212 213 211 209 204 203 198 199 199 199 219 195 195 227 217 223 240 262 266 250 249 278 289 251 238 230 235 251 254 241 219 186 162 120 304
185 185 184 182 183 184 188 191 188 186 186 187 188 188 187 185 185 188 189 192 196 194 194 193 192 194 191 189 191 192 191 193 193 196 192 186 199 201 207 202 209 210 207 208 196 202 205 212 208 214 211 203 210 209 200 199 190 203 206 210 212 181 210 216 219 215 237 213 236 242 216 252 249 255 234 220 205 212 223 226 232 223 147 204 202
183 185 182 183 183 187 189 191 191 191 191 190 189 185 184 188 189 188 193 197 194 192 192 193 193 196 195 193 189 191 191 191 193 191 183 190 198 197 200 212 208 205 206 207 199 200 203 214 212 218 207 210 208 209 201 198 191 202 202 219 209 194 216 245 238 218 236 215 225 247 220 240 232 237 229 219 208 194 217 214 218 180 197 200 183
180 180 183 184 188 190 189 189 190 190 191 192 188 185 188 191 187 194 200 198 196 197 192 193 194 196 196 189 194 192 190 189 186 186 188 194 200 198 205 203 208 197 205 202 204 207 203 208 212 218 218 211 210 213 203 200 192 204 206 214 215 198 221 240 259 244 255 248 256 267 258 254 251 258 248 221 202 205 204 203 198 194 189 189 161
183 178 179 184 186 187 189 192 195 194 192 188 186 190 194 189 192 195 192 191 195 199 194 199 190 197 193 193 193 191 194 187 182 186 194 202 204 205 206 212 190 206 195 199 205 210 206 209 210 214 218 214 209 215 204 197 193 205 206 215 214 202 217 228 230 267 255 259 260 264 269 260 239 248 258 259 240 218 206 210 187 185 192 178 183
170 167 169 173 164 164 165 161 160 161 160 183 191 187 197 199 200 196 194 194 196 197 197 195 192 194 199 200 197 191 189 184 190 190 195 196 203 206 206 196 202 210 191 206 209 212 208 208 214 216 220 216 213 215 207 195 200 205 215 210 217 212 218 226 206 240 246 241 248 261 268 266 227 237 248 242 231 223 213 216 207 199 208 199 202
147 143 134 143 159 162 164 168 172 176 180 183 175 182 191 201 208 204 195 200 196 198 197 192 190 192 200 200 193 188 183 189 194 196 201 200 199 203 196 199 209 209 201 208 214 213 215 209 218 223 219 220 216 216 206 197 203 204 214 220 220 210 217 230 229 236 242 236 243 248 263 270 250 247 243 249 239 236 219 224 227 197 218 215 198
81 72 66 57 44 87 153 162 164 165 167 176 186 189 184 180 191 206 215 207 199 195 191 190 191 197 196 193 194 190 184 188 197 199 203 201 198 197 193 207 211 209 209 211 209 214 214 217 220 224 217 223 219 216 209 205 204 202 211 220 216 216 221 229 233 239 240 228 232 244 256 257 255 250 252 246 239 231 229 227 233 211 213 222 202
80 101 117 112 107 99 75 149 172 168 165 173 180 187 186 184 177 189 208 220 214 197 188 192 193 194 193 195 198 191 190 193 200 198 203 198 198 198 194 207 210 217 220 214 212 207 217 217 220 220 222 217 212 202 202 207 205 201 208 216 218 211 218 222 227 232 242 235 232 233 249 248 239 249 256 249 238 237 237 231 238 223 221 225 205
103 101 111 122 128 120 118 129 158 177 181 187 185 176 179 185 188 186 190 191 202 202 197 190 191 192 195 199 200 197 199 198 198 199 199 195 192 197 198 201 203 216 220 215 217 210 214 221 220 223 220 219 213 210 212 212 207 204 205 214 213 215 216 217 224 228 233 229 234 237 240 238 236 235 250 252 236 239 233 234 242 242 228 214 214
143 150 137 94 91 123 141 156 181 189 187 195 177 143 190 196 199 193 189 183 179 184 194 195 190 191 191 196 195 200 198 198 200 202 195 193 195 199 200 204 199 210 214 220 221 225 224 221 223 218 218 216 212 210 214 212 203 191 195 203 214 220 227 229 232 235 238 238 235 239 240 233 232 232 241 247 248 237 226 235 230 237 222 203 212
111 154 168 166 161 159 161 176 171 184 182 89 326 205 206 204 210 202 188 182 183 183 189 196 195 197 197 194 192 190 191 192 185 176 174 174 172 182 198 213 215 218 218 222 229 229 231 219 222 215 220 214 210 210 211 209 201 196 193 205 208 216 224 227 232 237 244 248 245 242 244 241 236 233 230 240 231 246 233 246 242 236 235 218 228
290 259 235 173 176 183 177 180 200 191 194 182 181 202 216 212 209 201 190 195 185 186 190 193 197 200 202 194 182 177 173 172 174 177 182 186 186 183 179 180 188 211 226 235 236 232 233 224 221 222 221 208 201 212 207 207 205 200 199 210 210 212 220 225 233 239 235 238 246 247 244 243 241 245 243 241 235 223 232 252 258 207 226 218 239
32 336 329 331 314 238 206 216 220 218 218 205 193 194 201 203 205 197 197 198 179 191 188 192 197 204 196 177 171 170 173 175 177 191 197 195 193 192 192 193 196 197 209 224 236 238 227 223 224 226 222 207 217 214 218 214 210 203 204 213 207 210 212 218 230 235 241 238 244 248 254 256 256 255 255 254 252 245 236 230 250 237 218 214 225
20 14 5 353 345 342 330 292 279 270 260 239 220 208 209 208 203 198 198 185 177 150 84 40 9 2 3 157 159 167 163 180 192 198 205 211 216 216 219 218 212 207 220 224 223 226 224 221 218 219 221 216 219 6 21 15 343 307 296 281 233 215 208 217 224 228 239 244 244 243 251 265 269 271 266 258 254 258 260 244 240 236 210 202 207
24 26 27 13 355 346 332 307 297 295 278 258 246 230 216 213 203 194 177 142 114 106 124 172 166 123 35 344 338 94 175 184 187 204 207 214 214 219 227 237 257 247 232 215 223 225 223 209 194 214 228 227 158 171 207 204 211 227 234 235 230 229 216 217 224 230 235 238 245 247 247 249 250 250 252 258 258 254 256 253 243 239 230 216 211
47 41 32 21 8 6 6 352 339 335 325 302 278 245 230 223 216 209 168 146 136 150 174 175 153 161 167 149 157 239 241 208 199 195 199 206 227 279 328 271 246 242 226 231 232 219 219 209 205 210 208 193 207 224 260 264 227 222 227 238 235 224 227 233 230 235 237 235 230 237 246 239 245 262 270 260 253 255 249 249 256 248 235 228 225
35 39 37 27 25 27 24 20 15 6 353 334 356 328 295 271 244 214 174 162 154 159 163 161 208 228 110 130 168 199 203 160 50 61 71 66 91 123 166 174 165 76 140 297 2 340 13 334 267 239 155 148 192 179 191 223 251 266 272 264 288 312 270 269 263 253 247 235 224 217 222 236 228 239 257 269 265 264 257 233 230 181 152 149 182
39 44 39 36 29 29 27 23 16 10 10 7 7 348 328 321 299 228 183 158 154 154 156 151 138 131 143 124 117 60 48 79 81 72 67 67 75 132 174 164 111 66 55 49 49 65 39 6 346 321 244 191 41 40 41 55 10 291 284 264 219 234 243 236 233 231 230 234 222 211 213 230 227 216 194 260 285 280 253 222 210 174 136 119 109
31 42 36 29 23 24 24 19 5 16 9 15 13 16 17 340 335 109 79 73 87 90 95 107 113 120 118 101 95 96 104 114 107 97 103 126 154 192 176 50 61 70 89 123 109 123 142 188 223 202 210 53 50 33 23 11 341 296 258 238 214 217 239 249 245 234 229 229 222 211 216 225 232 240 171 149 248 304 288 265 200 164 131 112 91
37 36 38 24 27 33 31 33 32 28 22 16 7 16 24 33 354 49 78 68 77 73 72 73 67 65 62 74 89 103 109 84 76 80 131 296 350 342 1 61 69 68 140 100 102 152 175 167 202 39 70 86 50 21 23 12 348 320 275 247 236 238 240 244 247 247 244 237 223 207 206 208 209 214 182 179 167 146 252 271 259 193 145 133 134
33 30 31 25 25 30 33 38 36 33 23 15 15 30 38 28 26 63 61 67 68 77 81 82 74 65 67 64 75 88 99 111 119 129 69 13 344 333 335 353 21 325 315 354 44 19 340 21 79 107 116 99 77 29 27 26 21 1 330 308 286 259 259 258 263 267 265 250 242 237 219 220 215 213 183 185 171 161 176 172 196 181 172 175 187
39 30 27 17 15 18 22 30 36 33 15 14 28 40 49 40 26 50 62 53 36 39 61 84 96 98 91 88 77 77 76 92 96 44 51 38 6 329 344 63 195 267 292 199 212 153 117 50 49 61 74 80 66 40 27 20 19 12 5 356 317 277 263 261 263 266 263 255 236 243 240 220 220 207 181 192 179 179 193 186 192 205 214 223 265
33 31 25 25 18 23 24 20 22 13 7 20 31 49 48 41 35 43 50 48 37 16 10 36 64 66 67 87 84 76 63 56 69 103 114 115 55 59 58 85 96 78 82 302 263 69 66 56 53 66 70 77 75 53 33 28 22 17 13 49 31 22 336 330 331 314 292 271 288 289 276 231 209 178 187 195 170 178 193 178 159 165 182 221 192
38 29 24 31 26 29 23 19 12 9 15 20 36 54 47 41 36 42 39 36 38 23 22 27 45 66 77 70 69 74 77 66 48 44 46 56 33 21 25 48 49 74 71 40 50 64 69 60 51 48 59 69 73 64 48 38 27 20 11 21 46 39 358 338 325 319 318 297 281 332 342 9 21 142 171 156 154 159 162 149 163 177 182 162 158
41 41 37 34 35 28 20 13 13 15 15 19 37 50 43 40 41 32 12 355 38 47 43 56 51 51 52 51 52 57 62 64 61 70 66 48 35 56 64 55 40 34 31 38 50 57 64 56 49 47 40 28 40 57 61 41 31 26 30 24 40 16 355 348 352 16 7 26 20 13 21 27 5 349 336 330 339 71 78 137 151 262 136 126 155
32 34 27 44 49 33 24 10 0 14 20 16 37 44 32 30 31 4 342 3 35 45 52 53 52 52 51 52 51 55 51 48 44 35 45 39 24 42 58 69 78 80 69 60 53 49 49 49 48 39 37 34 20 34 45 55 42 31 26 28 24 16 355 23 26 27 8 345 344 8 336 1 1 348 333 326 343 334 331 36 31 236 209 198 203
43 47 38 50 61 46 42 20 10 18 26 29 39 47 38 34 13 341 358 30 43 45 49 55 55 57 57 56 61 61 56 51 55 53 51 45 31 20 25 44 71 86 89 82 76 82 83 73 60 49 40 36 30 17 28 31 34 33 25 21 15 9 11 359 356 355 348 332 323 324 320 319 323 310 306 312 340 335 320 266 208 205 201 204 191
57 39 36 50 56 54 47 38 25 23 24 30 33 47 41 30 352 353 11 27 40 45 53 52 51 52 58 62 60 54 52 51 44 50 62 56 55 42 44 9 45 66 79 88 90 86 79 76 74 57 38 41 29 27 12 14 17 29 23 13 9 360 8 1 354 349 353 341 317 306 297 284 270 271 275 293 295 284 276 263 221 202 242 224 159
61 47 41 40 44 45 44 42 27 18 24 31 33 45 47 359 347 15 27 43 50 49 46 42 40 37 32 36 53 50 48 44 40 34 40 34 39 46 64 38 45 67 83 93 100 97 87 80 69 55 41 33 34 24 17 5 1 359 4 359 357 352 359 353 357 337 337 323 309 298 289 272 257 252 251 212 219 247 272 184 136 116 265 106 93
95 78 71 53 62 56 52 48 32 1 11 14 35 38 34 2 18 12 32 65 76 75 71 60 57 52 52 52 59 52 44 41 41 37 37 34 27 18 28 36 33 39 61 72 70 65 62 64 62 38 39 37 33 28 11 351 0 349 349 346 348 346 348 352 357 347 345 344 332 328 312 290 262 243 240 236 197 204 199 143 141 140 68 40 189
81 86 103 82 70 84 55 41 28 358 2 11 23 21 11 18 17 15 23 58 69 76 77 71 67 69 63 49 61 65 66 60 50 53 47 36 34 32 40 30 17 11 31 62 63 60 56 54 48 27 17 27 16 28 23 359 351 349 336 324 332 334 344 340 334 342 332 317 323 320 328 348 332 251 187 189 215 192 215 136 130 118 102 32 113
116 152 128 125 122 77 42 58 32 343 7 25 21 12 6 15 12 14 29 61 69 67 67 60 51 57 57 63 64 69 73 79 74 62 59 50 42 42 62 55 37 20 348 9 55 67 61 57 67 43 28 23 8 360 2 350 328 328 317 320 329 339 320 310 319 317 317 309 342 16 14 7 10 15 40 68 76 74 71 91 108 113 131 100 80
182 135 155 145 121 136 107 75 358 354 28 44 31 12 2 2 7 15 37 65 63 73 73 70 66 65 61 64 56 53 58 71 77 82 84 74 54 51 39 76 65 39 45 31 23 64 43 63 75 52 23 57 359 329 334 329 312 297 293 297 296 295 292 287 300 293 265 9 36 37 24 16 17 24 36 43 55 65 78 82 77 76 75 83 89
170 120 32 72 94 128 136 115 37 351 27 16 17 11 8 5 7 10 40 64 73 77 70 55 62 81 109 104 85 68 44 46 47 61 74 87 95 70 54 52 67 63 51 50 56 51 45 32 39 70 93 151 135 28 345 340 335 326 320 311 301 292 286 279 284 299 42 38 48 54 35 30 20 27 32 28 35 46 59 69 69 64 59 60 60